If you wish to contribute or participate in the discussions about articles you are invited to join SKYbrary as a registered user

 Actions

Albury Airport

From SKYbrary Wiki

YMAY
Airport
ICAO: YMAY – IATA: ABX
Summary
Name Albury Airport
Region Asia and Pacific
Territory Australia AU.gif
Location , New South Wales
Serving Albury
Elevation 164.287 m
539 ft
539 ft164.287 m
Type medium airport
Coordinates 36° 4' 4.01" S, 146° 57' 29.02" E
Runways
Designator Length Width Surface ROPS
7/25 1900 m6,233.596 ft
30 m98.425 ft
ASP /


METAR
Observation YMAY 130500Z AUTO 21012KT 200V280 9999 // NCD 27/00 Q1012
Station Albury Airport
Date/Time 13 December 2019 05:00:00
Wind direction 210°
Wind speed 12 kts
Lowest cloud amount no clouds detected
Temperature 27°C
Dew point 0°C
Humidity 17%
QNH 1012 hPa
Weather condition n/a